| time (UTC) | temp F | wind direction | speed MPH | gust MPH | rain 1hr in | rain 24hr in | rain mn in | humidity % | barometer mb |
| 20260506203001 | 55 | 307 | 5.0 | 8.0 | 0.00 | 0.79 | 0.12 | 62 | 1013.3 |
| 20260506200004 | 54 | 309 | 5.0 | 8.0 | 0.00 | 0.79 | 0.12 | 58 | 1013.3 |
| 20260506194502 | 54 | 304 | 4.0 | 8.0 | 0.00 | 0.80 | 0.12 | 62 | 1013.4 |
| 20260506193000 | 54 | 301 | 4.0 | 8.0 | 0.00 | 0.80 | 0.12 | 62 | 1013.5 |
| 20260506191501 | 54 | 274 | 4.0 | 8.0 | 0.00 | 0.80 | 0.12 | 63 | 1013.5 |
| 20260506184500 | 54 | 302 | 3.0 | 5.0 | 0.00 | 0.90 | 0.12 | 69 | 1013.4 |
| 20260506183001 | 54 | 293 | 2.0 | 7.0 | 0.00 | 0.90 | 0.12 | 69 | 1013.5 |
| 20260506181501 | 53 | 281 | 4.0 | 7.0 | 0.00 | 0.90 | 0.12 | 67 | 1013.5 |
| 20260506180004 | 53 | 283 | 3.0 | 7.0 | 0.00 | 0.90 | 0.12 | 66 | 1013.5 |
| 20260506173001 | 54 | 234 | 2.0 | 5.0 | 0.00 | 1.01 | 0.12 | 66 | 1013.6 |
| 20260506171500 | 54 | 149 | 1.0 | 4.0 | 0.00 | 1.01 | 0.12 | 64 | 1013.6 |
| 20260506170003 | 54 | 250 | 1.0 | 3.0 | 0.00 | 1.01 | 0.12 | 65 | 1013.3 |
| 20260506164501 | 54 | 124 | 0.0 | 3.0 | 0.00 | 1.06 | 0.12 | 65 | 1013.5 |
| 20260506163001 | 53 | 304 | 0.0 | 0.0 | 0.00 | 1.06 | 0.12 | 66 | 1013.4 |
| 20260506161501 | 53 | 304 | 0.0 | 0.0 | 0.00 | 1.06 | 0.12 | 68 | 1013.3 |
| 20260506154501 | 53 | 304 | 0.0 | 2.0 | 0.00 | 1.07 | 0.12 | 69 | 1013.5 |
| 20260506153001 | 53 | 40 | 0.0 | 2.0 | 0.00 | 1.07 | 0.12 | 69 | 1013.3 |
| 20260506151502 | 53 | 333 | 0.0 | 2.0 | 0.00 | 1.07 | 0.12 | 70 | 1013.2 |
| 20260506150005 | 52 | 298 | 0.0 | 3.0 | 0.00 | 1.07 | 0.12 | 68 | 1013.4 |
| 20260506144501 | 52 | 34 | 0.0 | 2.0 | 0.00 | 1.13 | 0.12 | 71 | 1013.3 |
| 20260506143001 | 51 | 285 | 1.0 | 3.0 | 0.00 | 1.13 | 0.12 | 73 | 1013.1 |
| 20260506140005 | 50 | 269 | 1.0 | 4.0 | 0.00 | 1.13 | 0.12 | 77 | 1012.9 |
| 20260506134500 | 49 | 340 | 0.0 | 2.0 | 0.00 | 1.13 | 0.12 | 78 | 1012.6 |
| 20260506133001 | 49 | 340 | 0.0 | 2.0 | 0.00 | 1.13 | 0.12 | 82 | 1012.4 |
| 20260506131502 | 48 | 311 | 0.0 | 2.0 | 0.00 | 1.13 | 0.12 | 84 | 1012.6 |
| 20260506130007 | 47 | 307 | 1.0 | 3.0 | 0.00 | 1.13 | 0.12 | 86 | 1012.2 |
| 20260506123000 | 46 | 309 | 0.0 | 2.0 | 0.00 | 1.13 | 0.12 | 91 | 1012.0 |
| 20260506121501 | 46 | 297 | 0.0 | 2.0 | 0.00 | 1.13 | 0.12 | 93 | 1011.9 |
| 20260506114501 | 45 | 203 | 0.0 | 0.0 | 0.00 | 1.13 | 0.12 | 93 | 1011.3 |
| 20260506113000 | 44 | 203 | 0.0 | 0.0 | 0.00 | 1.13 | 0.12 | 93 | 1011.2 |
| 20260506111501 | 44 | 203 | 0.0 | 0.0 | 0.00 | 1.13 | 0.12 | 92 | 1010.7 |
| 20260506104459 | 45 | 203 | 0.0 | 0.0 | 0.00 | 1.13 | 0.12 | 93 | 1010.3 |
| 20260506103000 | 45 | 203 | 0.0 | 0.0 | 0.00 | 1.13 | 0.12 | 93 | 1010.2 |
| 20260506101500 | 45 | 203 | 0.0 | 1.0 | 0.00 | 1.13 | 0.12 | 93 | 1009.8 |
| 20260506100002 | 45 | 203 | 0.0 | 2.0 | 0.00 | 1.13 | 0.12 | 93 | 1010.1 |
| 20260506094500 | 46 | 203 | 0.0 | 2.0 | 0.00 | 1.13 | 0.12 | 93 | 1009.9 |
| 20260506093000 | 46 | 203 | 0.0 | 0.0 | 0.00 | 1.13 | 0.12 | 93 | 1009.7 |
| 20260506083000 | 46 | 203 | 1.0 | 3.0 | 0.00 | 1.13 | 0.12 | 93 | 1009.3 |
| 20260506081500 | 46 | 219 | 1.0 | 3.0 | 0.00 | 1.13 | 0.12 | 93 | 1009.3 |
| 20260506073000 | 46 | 127 | 1.0 | 2.0 | 0.00 | 1.22 | 0.12 | 93 | 1008.7 |
| 20260506071500 | 46 | 143 | 0.0 | 3.0 | 0.00 | 1.22 | 0.12 | 94 | 1009.1 |
| 20260506061459 | 46 | 287 | 0.0 | 0.0 | 0.05 | 1.42 | 0.12 | 94 | 1009.1 |
| 20260506044502 | 45 | 62 | 0.0 | 0.0 | 0.08 | 1.51 | 0.05 | 93 | 1009.6 |
| 20260506043002 | 46 | 62 | 0.0 | 1.0 | 0.11 | 1.51 | 0.05 | 94 | 1009.6 |
| 20260506041501 | 46 | 44 | 0.0 | 0.0 | 0.13 | 1.49 | 0.03 | 94 | 1009.4 |
| 20260506040006 | 46 | 44 | 0.0 | 1.0 | 0.13 | 1.46 | 0.00 | 94 | 1009.6 |
| 20260506034501 | 46 | 44 | 0.0 | 0.0 | 0.13 | 1.43 | 1.43 | 94 | 1009.3 |
| 20260506033003 | 45 | 44 | 0.0 | 0.0 | 0.13 | 1.40 | 1.40 | 94 | 1009.4 |
| 20260506024501 | 46 | 44 | 0.0 | 1.0 | 0.19 | 1.30 | 1.30 | 94 | 1009.0 |
| 20260506021501 | 46 | 44 | 0.0 | 0.0 | 0.11 | 1.18 | 1.18 | 93 | 1009.2 |
| 20260506020005 | 46 | 44 | 0.0 | 1.0 | 0.10 | 1.15 | 1.15 | 93 | 1008.7 |
| 20260506014502 | 46 | 44 | 0.0 | 1.0 | 0.08 | 1.11 | 1.11 | 93 | 1008.3 |
| 20260506013002 | 46 | 44 | 0.0 | 2.0 | 0.07 | 1.09 | 1.09 | 93 | 1008.1 |
| 20260506011502 | 45 | 343 | 0.0 | 2.0 | 0.06 | 1.06 | 1.06 | 93 | 1008.0 |
| 20260506010004 | 45 | 343 | 0.0 | 0.0 | 0.06 | 1.05 | 1.05 | 93 | 1008.2 |
| 20260506004503 | 45 | 343 | 0.0 | 0.0 | 0.06 | 1.03 | 1.03 | 93 | 1008.3 |
| 20260506003003 | 46 | 343 | 0.0 | 0.0 | 0.06 | 1.01 | 1.01 | 93 | 1008.4 |
| 20260506001502 | 46 | 343 | 0.0 | 0.0 | 0.07 | 1.00 | 1.00 | 93 | 1008.1 |
| 20260506000005 | 46 | 343 | 0.0 | 0.0 | 0.07 | 0.98 | 0.98 | 93 | 1008.2 |
| 20260505234502 | 46 | 343 | 0.0 | 1.0 | 0.08 | 0.97 | 0.97 | 92 | 1007.9 |
| 20260505233001 | 46 | 343 | 0.0 | 1.0 | 0.07 | 0.95 | 0.95 | 92 | 1008.0 |
| 20260505230004 | 46 | 343 | 0.0 | 0.0 | 0.06 | 0.91 | 0.91 | 92 | 1008.5 |
| 20260505224502 | 46 | 343 | 0.0 | 0.0 | 0.05 | 0.89 | 0.89 | 92 | 1008.7 |
| 20260505223002 | 46 | 343 | 0.0 | 1.0 | 0.06 | 0.88 | 0.88 | 92 | 1008.5 |
| 20260505221502 | 46 | 343 | 0.0 | 0.0 | 0.08 | 0.88 | 0.88 | 92 | 1008.8 |
| 20260505214501 | 46 | 335 | 1.0 | 3.0 | 0.04 | 0.84 | 0.84 | 92 | 1008.7 |
| 20260505213001 | 46 | 345 | 2.0 | 5.0 | 0.03 | 0.82 | 0.82 | 91 | 1008.9 |
| 20260505210004 | 47 | 344 | 3.0 | 7.0 | 0.01 | 0.80 | 0.80 | 91 | 1008.5 |